Date String (YYYY-MM-DD hh:mm:ss) UTC,Instrument flags,absolute air pressure of the measurement (hPa),sample flow rate (lpm),inlet stack bypass flow (lpm),air temperature of the measurement (°C),ambient temperature measured by the external sensor (°C),aerosol sample conditioner tube jacket temperature (°C),OPC LED temperature (°C),internal box temperature (°C),relative humidity of the measurement (%),span deviation,mass concentration of particles derived from Lorenz-Mie calculation of OPC scattering (μg/m³),mass concentration of particles derived from Lorenz-Mie calculation of OPC scattering (μg/m³),mass concentration of particles derived from Lorenz-Mie calculation of OPC scattering (μg/m³)
DateTimeUTC,F1_M11,P_M11,Q1_M11,Q2_M11,T1_M11,T2_M11,T3_M11,T4_M11,T5_M11,U1_M11,ZSPAN_M11,X0_M11,X2_M11,X1_M11
2024-05-22 17:00:00,SystemResetWarning,0826.5,5.01,000.00,025.4,024.7,000.0,033.5,027.1,011.4,0000.0,0003.63,0001.97,0001.50
2024-05-22 17:01:00,SystemResetWarning,0826.6,5.00,000.00,025.4,024.7,000.0,033.5,027.1,011.3,0000.0,0003.69,0002.01,0001.51
2024-05-22 17:02:00,SystemResetWarning,0826.6,5.01,000.00,025.4,024.7,000.0,033.5,027.1,010.7,0000.0,0003.42,0001.92,0001.49
2024-05-22 17:03:00,SystemResetWarning,0826.6,5.00,000.00,025.4,024.7,000.0,033.5,027.1,010.8,0000.0,0003.59,0001.88,0001.49
2024-05-22 17:04:00,SystemResetWarning,0826.6,5.00,000.00,025.4,024.7,000.0,033.5,027.1,011.1,0000.0,0003.77,0001.85,0001.49
2024-05-22 17:05:00,SystemResetWarning,0826.6,5.00,000.00,025.4,024.7,000.0,033.6,027.2,010.5,0000.0,0004.68,0001.89,0001.49
2024-05-22 17:06:00,SystemResetWarning,0826.6,5.00,000.00,025.4,024.7,000.0,033.6,027.2,011.2,0000.0,0004.74,0001.91,0001.49
2024-05-22 17:07:00,SystemResetWarning,0826.6,4.99,000.00,025.4,024.7,000.0,033.6,027.2,011.1,0000.0,0004.95,0001.93,0001.51
2024-05-22 17:08:00,SystemResetWarning,0826.6,5.00,000.00,025.4,024.8,000.0,033.6,027.2,011.1,0000.0,0006.35,0001.93,0001.50
2024-05-22 17:09:00,SystemResetWarning,0826.5,5.01,000.00,025.5,024.8,000.0,033.6,027.2,010.2,0000.0,0006.40,0001.95,0001.51
2024-05-22 17:10:00,SystemResetWarning,0826.4,5.00,000.00,025.5,024.8,000.0,033.6,027.2,010.4,0000.0,0006.47,0001.95,0001.51
2024-05-22 17:11:00,SystemResetWarning,0826.4,5.00,000.00,025.5,024.8,000.0,033.6,027.2,010.6,0000.0,0006.50,0001.94,0001.50
2024-05-22 17:12:00,SystemResetWarning,0826.4,5.00,000.00,025.5,024.8,000.0,033.6,027.2,010.8,0000.0,0006.94,0001.92,0001.48
2024-05-22 17:13:00,SystemResetWarning,0826.5,5.00,000.00,025.5,024.8,000.0,033.7,027.3,009.9,0000.0,0007.27,0001.93,0001.48
2024-05-22 17:14:00,SystemResetWarning,0826.4,5.00,000.00,025.5,024.8,000.0,033.7,027.3,009.5,0000.0,0007.32,0001.97,0001.47
2024-05-22 17:15:00,SystemResetWarning,0826.4,5.00,000.00,025.5,024.8,000.0,033.7,027.3,009.5,0000.0,0007.18,0001.97,0001.47
2024-05-22 17:16:00,SystemResetWarning,0826.3,5.00,000.00,025.5,024.8,000.0,033.7,027.2,009.5,0000.0,0006.43,0001.96,0001.47
2024-05-22 17:17:00,SystemResetWarning,0826.4,4.99,000.00,025.5,024.8,000.0,033.7,027.3,009.7,0000.0,0006.40,0001.91,0001.45
2024-05-22 17:18:00,SystemResetWarning,0826.3,4.99,000.00,025.5,024.8,000.0,033.7,027.3,009.2,0000.0,0006.22,0001.86,0001.42
2024-05-22 17:19:00,SystemResetWarning,0826.2,4.99,000.00,025.5,024.8,000.0,033.7,027.3,009.6,0000.0,0004.70,0001.86,0001.42
2024-05-22 17:20:00,SystemResetWarning,0826.2,5.01,000.00,025.5,024.8,000.0,033.7,027.3,009.4,0000.0,0005.31,0001.81,0001.40
2024-05-22 17:21:00,SystemResetWarning,0826.2,5.01,000.00,025.5,024.8,000.0,033.7,027.3,009.2,0000.0,0006.60,0001.78,0001.38
2024-05-22 17:22:00,SystemResetWarning,0826.2,5.00,000.00,025.6,024.8,000.0,033.7,027.3,009.6,0000.0,0007.35,0001.80,0001.38
2024-05-22 17:23:00,SystemResetWarning,0826.2,5.01,000.00,025.6,024.9,000.0,033.7,027.3,009.9,0000.0,0007.00,0001.75,0001.37
2024-05-22 17:24:00,SystemResetWarning,0826.2,4.99,000.00,025.6,024.9,000.0,033.7,027.3,009.3,0000.0,0006.73,0001.75,0001.36
2024-05-22 17:25:00,SystemResetWarning,0826.2,4.99,000.00,025.6,024.9,000.0,033.7,027.3,009.3,0000.0,0006.43,0001.72,0001.36
2024-05-22 17:26:00,SystemResetWarning,0826.2,4.99,000.00,025.6,024.9,000.0,033.8,027.3,008.4,0000.0,0006.27,0001.69,0001.33
2024-05-22 17:27:00,SystemResetWarning,0826.2,5.01,000.00,025.6,024.9,000.0,033.8,027.3,007.9,0000.0,0006.09,0001.68,0001.30
2024-05-22 17:28:00,SystemResetWarning,0826.1,5.01,000.00,025.6,024.9,000.0,033.8,027.4,007.4,0000.0,0007.38,0001.73,0001.30
2024-05-22 17:29:00,SystemResetWarning,0826.0,4.99,000.00,025.6,024.9,000.0,033.8,027.4,007.7,0000.0,0008.03,0001.76,0001.28
2024-05-22 17:30:00,SystemResetWarning,0826.0,4.99,000.00,025.6,024.9,000.0,033.8,027.4,008.3,0000.0,0008.01,0001.75,0001.26
2024-05-22 17:31:00,SystemResetWarning,0826.0,5.00,000.00,025.6,024.9,000.0,033.8,027.4,008.8,0000.0,0007.92,0001.79,0001.26
2024-05-22 17:32:00,SystemResetWarning,0826.0,5.01,000.00,025.6,024.9,000.0,033.8,027.4,008.8,0000.0,0007.49,0001.81,0001.26
2024-05-22 17:33:00,SystemResetWarning,0825.9,5.01,000.00,025.6,024.9,000.0,033.8,027.4,009.2,0000.0,0006.83,0001.81,0001.25
2024-05-22 17:34:00,SystemResetWarning,0825.9,5.00,000.00,025.6,025.0,000.0,033.8,027.4,009.6,0000.0,0006.90,0001.80,0001.25
2024-05-22 17:35:00,SystemResetWarning,0825.9,4.99,000.00,025.7,025.0,000.0,033.8,027.4,010.3,0000.0,0007.35,0001.81,0001.24
2024-05-22 17:36:00,SystemResetWarning,0825.9,4.99,000.00,025.7,025.0,000.0,033.8,027.4,009.6,0000.0,0007.50,0001.87,0001.25
2024-05-22 17:37:00,SystemResetWarning,0825.9,5.00,000.00,025.7,025.0,000.0,033.9,027.4,009.3,0000.0,0007.82,0001.93,0001.27
2024-05-22 17:38:00,SystemResetWarning,0825.9,5.00,000.00,025.7,025.0,000.0,033.9,027.4,009.4,0000.0,0008.05,0001.94,0001.28
2024-05-22 17:39:00,SystemResetWarning,0825.9,5.00,000.00,025.7,025.0,000.0,033.9,027.4,009.2,0000.0,0007.11,0001.90,0001.29
2024-05-22 17:40:00,SystemResetWarning,0825.9,5.01,000.00,025.7,025.0,000.0,033.9,027.4,008.5,0000.0,0007.59,0001.87,0001.29
2024-05-22 17:41:00,SystemResetWarning,0825.9,5.00,000.00,025.7,025.0,000.0,033.9,027.5,009.9,0000.0,0007.71,0001.88,0001.30
2024-05-22 17:42:00,SystemResetWarning,0825.9,5.00,000.00,025.7,025.0,000.0,033.9,027.5,008.9,0000.0,0007.38,0001.84,0001.30
2024-05-22 17:43:00,SystemResetWarning,0825.9,5.00,000.00,025.7,025.0,000.0,033.9,027.5,008.6,0000.0,0007.16,0001.86,0001.31
2024-05-22 17:44:00,SystemResetWarning,0825.9,4.99,000.00,025.7,025.0,000.0,033.9,027.5,008.7,0000.0,0008.64,0001.89,0001.32
2024-05-22 17:45:00,SystemResetWarning,0825.9,5.00,000.00,025.7,025.0,000.0,033.9,027.5,008.9,0000.0,0009.47,0001.96,0001.33
2024-05-22 17:46:00,SystemResetWarning,0825.8,5.00,000.00,025.7,025.0,000.0,033.9,027.5,008.5,0000.0,0010.09,0002.00,0001.34
2024-05-22 17:47:00,SystemResetWarning,0825.8,5.01,000.00,025.8,025.1,000.0,033.9,027.5,009.0,0000.0,0010.00,0001.96,0001.35
2024-05-22 17:48:00,SystemResetWarning,0825.8,5.00,000.00,025.8,025.1,000.0,033.9,027.5,008.8,0000.0,0009.83,0001.92,0001.35
2024-05-22 17:49:00,SystemResetWarning,0825.8,4.99,000.00,025.8,025.1,000.0,033.9,027.5,008.6,0000.0,0010.01,0001.92,0001.35
2024-05-22 17:50:00,SystemResetWarning,0825.7,4.99,000.00,025.8,025.1,000.0,034.0,027.5,008.0,0000.0,0010.03,0001.92,0001.35
2024-05-22 17:51:00,SystemResetWarning,0825.7,5.00,000.00,025.8,025.1,000.0,034.0,027.5,008.5,0000.0,0009.28,0001.94,0001.35
2024-05-22 17:52:00,SystemResetWarning,0825.8,5.00,000.00,025.8,025.1,000.0,034.0,027.5,008.6,0000.0,0009.05,0001.94,0001.34
2024-05-22 17:53:00,SystemResetWarning,0825.7,5.00,000.00,025.8,025.1,000.0,034.0,027.6,009.7,0000.0,0009.05,0001.95,0001.34
2024-05-22 17:54:00,SystemResetWarning,0825.7,5.00,000.00,025.8,025.1,000.0,034.0,027.6,008.8,0000.0,0009.02,0001.95,0001.35
2024-05-22 17:55:00,SystemResetWarning,0825.7,5.00,000.00,025.8,025.1,000.0,034.0,027.6,008.7,0000.0,0007.89,0001.94,0001.34
2024-05-22 17:56:00,SystemResetWarning,0825.6,5.00,000.00,025.8,025.1,000.0,034.0,027.6,008.5,0000.0,0007.61,0001.89,0001.32
2024-05-22 17:57:00,SystemResetWarning,0825.6,5.01,000.00,025.8,025.2,000.0,034.0,027.6,008.1,0000.0,0006.04,0001.86,0001.31
2024-05-22 17:58:00,SystemResetWarning,0825.6,5.00,000.00,025.9,025.2,000.0,034.0,027.6,008.9,0000.0,0006.16,0001.86,0001.30
2024-05-22 17:59:00,SystemResetWarning,0825.5,5.01,000.00,025.9,025.2,000.0,034.0,027.6,008.6,0000.0,0006.17,0001.88,0001.30
